Terminal Aerodrome Forecast
Issued by NWS Wakefield, VA

Home | Current Version | Previous Version | Text Only | Print | Product List | Glossary On
Versions: 1 2 3 4 5 6 7 8 9 10 11 12 13 14 15 16 17 18 19 20 21 22
000
FTUS41 KAKQ 230500
TAFORF
TAF
KORF 230534Z 2306/2406 32009G15KT P6SM SCT025 OVC035
     FM231400 31017G24KT P6SM SCT040
     FM232200 31012G20KT P6SM SKC=

USA.gov is the U.S. government's official web portal to all federal, state and local government web resources and services.